TimePDT,TemperatureF,Dew PointF,Humidity,Sea Level PressureIn,VisibilityMPH,Wind Direction,Wind SpeedMPH,Gust SpeedMPH,PrecipitationIn,Events,Conditions,WindDirDegrees,DateUTC
12:53 AM,60.1,52.0,75,29.97,10.0,SSE,9.2,-,N/A,,Clear,160,2013-07-21 07:53:00
1:53 AM,59.0,52.0,78,29.97,10.0,South,13.8,19.6,N/A,,Clear,170,2013-07-21 08:53:00
2:53 AM,57.9,52.0,81,29.96,10.0,South,12.7,19.6,N/A,,Clear,170,2013-07-21 09:53:00
3:53 AM,57.0,53.1,87,29.96,10.0,South,11.5,18.4,N/A,,Clear,170,2013-07-21 10:53:00
4:53 AM,55.9,53.1,90,29.96,10.0,South,12.7,19.6,N/A,,Clear,170,2013-07-21 11:53:00
5:24 AM,55.4,51.8,88,29.94,8.0,South,10.4,19.6,N/A,,Partly Cloudy,170,2013-07-21 12:24:00
5:53 AM,55.0,53.1,93,29.97,8.0,South,10.4,-,N/A,,Partly Cloudy,170,2013-07-21 12:53:00
6:24 AM,55.4,53.6,94,29.96,8.0,South,6.9,-,N/A,,Mostly Cloudy,170,2013-07-21 13:24:00
6:49 AM,55.4,51.8,88,29.96,10.0,South,8.1,-,N/A,,Scattered Clouds,170,2013-07-21 13:49:00
6:53 AM,55.9,52.0,87,29.98,10.0,South,6.9,-,N/A,,Scattered Clouds,170,2013-07-21 13:53:00
7:15 AM,55.4,51.8,88,29.96,10.0,South,10.4,-,N/A,,Mostly Cloudy,170,2013-07-21 14:15:00
7:37 AM,55.4,51.8,88,29.97,9.0,SSE,10.4,-,N/A,,Overcast,160,2013-07-21 14:37:00
7:53 AM,55.9,52.0,87,29.99,8.0,South,12.7,-,N/A,,Overcast,170,2013-07-21 14:53:00
8:53 AM,55.9,53.1,90,29.99,7.0,South,9.2,-,N/A,,Overcast,180,2013-07-21 15:53:00
9:53 AM,57.0,53.1,87,29.99,9.0,South,10.4,-,N/A,,Overcast,170,2013-07-21 16:53:00
10:53 AM,57.9,54.0,87,29.99,9.0,South,11.5,-,N/A,,Overcast,170,2013-07-21 17:53:00
11:53 AM,60.1,54.0,80,29.98,10.0,South,9.2,17.3,N/A,,Overcast,170,2013-07-21 18:53:00
12:00 PM,60.8,53.6,77,29.96,10.0,South,6.9,-,N/A,,Overcast,180,2013-07-21 19:00:00
12:53 PM,62.1,54.0,75,29.98,10.0,SSW,8.1,-,N/A,,Partly Cloudy,200,2013-07-21 19:53:00
1:53 PM,63.0,55.0,75,29.97,6.0,South,10.4,-,N/A,,Haze,170,2013-07-21 20:53:00
2:53 PM,66.0,55.0,68,29.97,10.0,South,8.1,-,N/A,,Haze,190,2013-07-21 21:53:00
3:53 PM,68.0,55.9,65,29.96,10.0,South,9.2,-,N/A,,Haze,170,2013-07-21 22:53:00
4:53 PM,68.0,55.9,65,29.95,10.0,South,8.1,-,N/A,,Haze,170,2013-07-21 23:53:00
5:53 PM,68.0,55.9,65,29.93,10.0,Variable,5.8,-,N/A,,Haze,0,2013-07-22 00:53:00
6:53 PM,68.0,55.9,65,29.93,10.0,South,8.1,-,N/A,,Haze,180,2013-07-22 01:53:00
7:53 PM,66.0,57.0,73,29.92,10.0,South,6.9,-,N/A,,Haze,180,2013-07-22 02:53:00
8:53 PM,63.0,55.9,78,29.93,10.0,SSE,10.4,-,N/A,,Haze,160,2013-07-22 03:53:00
9:53 PM,63.0,55.9,78,29.94,10.0,South,8.1,-,N/A,,Haze,170,2013-07-22 04:53:00
10:53 PM,62.1,55.0,78,29.94,10.0,SSE,10.4,-,N/A,,Clear,160,2013-07-22 05:53:00
11:53 PM,62.1,55.9,80,29.94,10.0,South,11.5,18.4,N/A,,Clear,170,2013-07-22 06:53:00